Weather History for Abbotsford, BC

Change the Weather History Date:

Monday, October 21, 2013

  Actual Average Record
Temperature  
Mean Temperature 49 °F -  
Max Temperature 56 °F 51 °F 69 °F (1999)
Min Temperature 42 °F 38 °F 32 °F (1997)
Degree Days  
Heating Degree Days 16    
Moisture  
Dew Point 46 °F    
Average Humidity 94    
Maximum Humidity 100    
Minimum Humidity 79    
Precipitation  
Precipitation 0.00 in 0.27 in - ()
Sea Level Pressure  
Sea Level Pressure 30.17 in    
Wind  
Wind Speed 4 mph ()    
Max Wind Speed 6 mph    
Max Gust Speed -    
Visibility 3.1 miles    
Events Fog    
Averages and records for this station are not official NWS values.
T = Trace of Precipitation, MM = Missing Value Source: Averaged Metar Reports

Daily Weather History Graph

Daily Weather History Graph

Search for Another Location

Airport:

Trip Planner

Search our weather history database for the weather conditions in past years. The results will help you decide how hot, cold, wet, or windy it might be!

Date:

Astronomy

Oct. 21, 2013 Rise Set
Actual Time 7:39 AM PDT 6:07 PM PDT
Civil Twilight 7:07 AM PDT 6:39 PM PDT
Nautical Twilight 6:30 AM PDT 7:16 PM PDT
Astronomical Twilight 5:54 AM PDT 7:53 PM PDT
Moon 7:51 PM PDT (10/21) 10:32 AM PDT (10/21)
Length of Visible Light 11h 32m
Length of Day
10h 27m
Waning Gibbous, 92% of the Moon is Illuminated
Oct 21
Waning Gibbous
Oct 26
Last Quarter
Nov 3
New
Nov 9
First Quarter
Nov 17
Full

Hourly Weather History & Observations

Time (PDT) Temp. Windchill Dew Point Humidity Pressure Visibility Wind Dir Wind Speed Gust Speed Precip Events Conditions
12:00 AM 46.4 °F 45.2 °F 46.4 °F 100% 30.19 in 0.8 mi NNW 3.5 mph - N/A   Overcast
1:00 AM 46.4 °F 45.2 °F 46.4 °F 100% 30.19 in 0.6 mi North 3.5 mph - N/A   Mist
2:00 AM 48.2 °F - 46.4 °F 93% 30.19 in 0.6 mi North 3.5 mph - N/A   Mist
2:54 AM 46.4 °F 43.5 °F 46.4 °F 100% 30.19 in 0.8 mi North 5.8 mph - N/A   Overcast
3:00 AM 46.4 °F 43.5 °F 46.4 °F 100% 30.19 in 1.0 mi NNW 5.8 mph - N/A   Overcast
4:00 AM 46.4 °F 44.3 °F 46.4 °F 100% 30.19 in 1.0 mi NW 4.6 mph - N/A   Overcast
5:00 AM 46 °F - 45 °F 96% 30.18 in 1 mi NNW 4.6 mph - -   Mist
5:00 AM 46.4 °F 44.3 °F 44.6 °F 93% 30.18 in 1.0 mi NNW 4.6 mph - N/A   Overcast
6:00 AM 44.6 °F 42.2 °F 44.6 °F 100% 30.17 in 0.8 mi NW 4.6 mph - N/A   Mist
7:00 AM 44.6 °F 42.2 °F 42.8 °F 93% 30.18 in 0.6 mi NW 4.6 mph - N/A   Mist
7:47 AM 44.6 °F 43.1 °F 42.8 °F 93% 30.19 in 0.6 mi NNW 3.5 mph - N/A   Overcast
8:00 AM 44.6 °F 42.2 °F 42.8 °F 93% 30.19 in 0.5 mi NNW 4.6 mph - N/A Fog Fog
9:00 AM 44.6 °F 43.1 °F 44.6 °F 100% 30.19 in 0.5 mi North 3.5 mph - N/A Fog Fog
10:00 AM 44.6 °F 43.1 °F 44.6 °F 100% 30.19 in 0.8 mi NW 3.5 mph - N/A   Overcast
10:06 AM 44.6 °F - 44.6 °F 100% 30.19 in 1.2 mi WNW 2.3 mph - N/A   Overcast
10:27 AM 46.4 °F 45.2 °F 44.6 °F 93% 30.20 in 2.0 mi North 3.5 mph - N/A   Overcast
10:46 AM 46.4 °F 45.2 °F 46.4 °F 100% 30.20 in 3.0 mi NNW 3.5 mph - N/A   Overcast
11:00 AM 46 °F - 46 °F 99% 30.19 in 3 mi NW 2.3 mph - -   Mist
11:00 AM 46.4 °F - 46.4 °F 100% 30.19 in 3.0 mi WNW 2.3 mph - N/A   Overcast
11:46 AM 48.2 °F - 46.4 °F 93% 30.19 in 5.0 mi Variable 2.3 mph - N/A   Overcast
12:00 PM 50.0 °F - 48.2 °F 94% 30.19 in 5.0 mi Variable 2.3 mph - N/A   Overcast
12:30 PM 50.0 °F - 48.2 °F 94% 30.18 in 5.0 mi West 3.5 mph - N/A   Mostly Cloudy
1:00 PM 50.0 °F - 46.4 °F 87% 30.17 in 15.0 mi West 3.5 mph - N/A   Mostly Cloudy
1:20 PM 51.8 °F - 48.2 °F 88% 30.17 in 15.0 mi WSW 5.8 mph - N/A   Scattered Clouds
2:00 PM 53.6 °F - 48.2 °F 82% 30.16 in 20.0 mi SW 3.5 mph - N/A   Scattered Clouds
3:00 PM 55.4 °F - 50.0 °F 82% 30.14 in 30.0 mi WSW 3.5 mph - N/A   Partly Cloudy
4:00 PM 55.4 °F - 50.0 °F 82% 30.13 in 30.0 mi SSW 4.6 mph - N/A   Clear
5:00 PM 54 °F - 49 °F 79% 30.13 in 28 mi West 4.6 mph - -  
5:00 PM 53.6 °F - 50.0 °F 88% 30.13 in 30.0 mi West 4.6 mph - N/A   Clear
5:19 PM 53.6 °F - 48.2 °F 82% 30.12 in 8.0 mi West 4.6 mph - N/A   Clear
6:00 PM 50.0 °F - 48.2 °F 94% 30.12 in 8.0 mi WNW 4.6 mph - N/A   Clear
6:14 PM 50.0 °F - 48.2 °F 94% 30.12 in 3.0 mi WNW 3.5 mph - N/A   Clear
7:00 PM 46.4 °F 45.2 °F 46.4 °F 100% 30.13 in 3.0 mi NNW 3.5 mph - N/A   Clear
8:00 PM 46.4 °F - 46.4 °F 100% 30.13 in 2.0 mi West 2.3 mph - N/A   Clear
8:09 PM 44.6 °F 43.1 °F 44.6 °F 100% 30.13 in 0.6 mi SW 3.5 mph - N/A   Clear
8:16 PM 42.8 °F 40.1 °F 42.8 °F 100% 30.13 in 0.4 mi SW 4.6 mph - N/A Fog Fog
9:00 PM 44.6 °F - 42.8 °F 93% 30.14 in 0.2 mi SSW 2.3 mph - N/A Fog Fog
10:00 PM 44.6 °F 43.1 °F 44.6 °F 100% 30.14 in 0.2 mi WSW 3.5 mph - N/A Fog Fog
11:00 PM 44 °F - 43 °F 97% 30.15 in 0 mi NW 2.3 mph - - Fog Partial Fog
11:00 PM 44.6 °F - 42.8 °F 93% 30.15 in 0.2 mi NW 2.3 mph - N/A Fog Fog